Back to catalog

IRIDIUM 17

AliveCommunicationsPO
NORAD 24870·PAYLOAD·🇺🇸 United States

Launched Jul 9, 1997 from Vandenberg Space Force Base

Loading…

Next Passes (next 24 hours)

TLE

FreshSource: Space-Track

Epoch: Sep 14, 2026, 09:57 UTC

1 24870U 97034B   26257.41481675  .00000280  00000-0  85580-4 0  9992
2 24870  86.3942  43.7077 0001780  44.4180 315.7160 14.38236787528861

Track IRIDIUM 17 in real time with AllMySat

Download on the App Store